Regional Weather Roundup
Issued by NWS

Home | Current Version | Previous Version | Text Only | Print | Product List | Glossary Off
Versions: 1 2 3 4 5 6 7 8 9 10 11 12 13 14 15 16 17 18 19 20 21 22 23 24 25 26 27 28 29 30 31 32 33 34 35 36 37 38 39 40 41 42 43 44 45 46 47 48 49 50

000
ASUS43 KOAX 250502
RWRNE

WEATHER ROUNDUP FOR NEBRASKA
NATIONAL WEATHER SERVICE OMAHA NE
1100 PM CST FRI FEB 24 2017

NOTES: SATELLITE DATA IS BEING USED TO AUGMENT CLOUD COVER ABOVE
       12000 FEET.
       "FAIR" INDICATES FEW OR NO CLOUDS BELOW 12,000 FEET WITH NO
       SIGNIFICANT WEATHER AND/OR OBSTRUCTIONS TO VISIBILITY.

  * THESE STATIONS DO NOT REPORT WEATHER SUCH AS RAIN...SNOW OR FOG.

NEZ001>004-019>022-054>056-250600-
NEBRASKA PANHANDLE

CITY           SKY/WX    TMP DP  RH WIND       PRES   REMARKS
SCOTTSBLUFF    CLOUDY    11   8  88 E6        30.05F FOG     WCI   1
ALLIANCE       FOG        0  -3  87 W5        30.05S VSB 3/4 WCI -10
CHADRON        CLOUDY     4   0  83 W6        30.07F WCI  -7
SIDNEY         CLOUDY     5   1  83 W10       30.06R WCI -10
$$

NEZ057>060-069>072-079>082-250600-
SOUTHWEST NEBRASKA

CITY           SKY/WX    TMP DP  RH WIND       PRES   REMARKS
NORTH PLATTE   CLOUDY    12   7  80 NW8       30.15R WCI   0
IMPERIAL       CLOUDY    18  13  80 NW6       30.13S WCI  10
LEXINGTON      CLOUDY    17  11  78 W10       30.14S WCI   4
MCCOOK         CLOUDY    17  12  80 W8        30.17R WCI   7
OGALLALA       CLOUDY    11   8  87 CALM      30.12F
$$

NEZ005>010-023>029-035>040-094-250600-
NORTH CENTRAL NEBRASKA

CITY           SKY/WX    TMP DP  RH WIND       PRES   REMARKS
VALENTINE      CLOUDY     2  -2  83 SW8       30.12S WCI -12
AINSWORTH      CLOUDY     9   6  89 W8        30.10S WCI  -3
BROKEN BOW     CLOUDY    17  10  74 NW14      30.11S WCI   3
O`NEILL        CLOUDY    18  12  77 NW10      30.11R WCI   6
ORD            CLEAR     15   8  73 W9        30.12R WCI   3
THEDFORD       CLOUDY     8   5  85 W7        30.12S WCI  -3
$$

NEZ041-046>049-061>064-073>077-083>087-250600-
SOUTH CENTRAL NEBRASKA

CITY           SKY/WX    TMP DP  RH WIND       PRES   REMARKS
GRAND ISLAND   CLEAR     18  13  80 NW10      30.12S WCI   6
AURORA         CLEAR     19  14  78 NW8       30.11S WCI   9
HASTINGS       CLEAR     18  12  77 NW15      30.13S WCI   4
HEBRON         PTCLDY    22  15  76 NW12      30.12S WCI  10
HOLDREGE       CLOUDY    16  11  82 NW7       30.13F WCI   6
KEARNEY *      CLOUDY    18   9  68 NW8       30.13S WCI   7
YORK           CLEAR     23  16  74 NW14      30.10R WCI  11
$$

NEZ011>018-030>034-042>045-250600-
NORTHEAST NEBRASKA

CITY           SKY/WX    TMP DP  RH WIND       PRES   REMARKS
NORFOLK        CLEAR     21  12  68 NW13      30.08R WCI   9
ALBION         CLEAR     23  13  64 NW14      30.10R WCI  11
BLAIR          CLEAR     23  17  77 NW14      30.03R WCI  11
FREMONT        CLEAR     24  17  75 NW16      30.07R WCI  11
TEKAMAH        CLEAR     21  14  74 NW15      30.05R WCI   8
WAYNE          CLEAR     21  15  76 N17       30.06R WCI   7
$$

NEZ050>053-065>068-078-088>093-250600-
SOUTHEAST NEBRASKA

CITY           SKY/WX    TMP DP  RH WIND       PRES   REMARKS
LINCOLN        PTCLDY    26  17  68 NW14      30.09R WCI  14
OMAHA EPPLEY   PTCLDY    23  15  71 NW12      30.04R WCI  12
BEATRICE       PTCLDY    25  18  75 NW17      30.09R WCI  11
FALLS CITY     CLOUDY    25  17  72 NW13      30.06R WCI  14
NEBRASKA CITY  PTCLDY    23  16  72 NW14G20   30.04S WCI  11
PLATTSMOUTH    CLEAR     21  14  73 NW6       30.04R WCI  13
$$

NEZ044-045-051>053-067-250600-
OMAHA AREA

CITY           SKY/WX    TMP DP  RH WIND       PRES   REMARKS
OMAHA EPPLEY   PTCLDY    23  15  71 NW12      30.04R WCI  12
BLAIR          CLEAR     23  17  77 NW14      30.03R WCI  11
FREMONT        CLEAR     24  17  75 NW16      30.07R WCI  11
MILLARD        CLEAR     28  19  69 NW13      30.06R WCI  17
OFFUTT AFB     CLEAR     22  14  72 NW15      30.04R WCI   9
PLATTSMOUTH    CLEAR     21  14  73 NW6       30.04R WCI  13
WAHOO          FAIR      25  18  73 NW20      30.06R WCI  11
$$



USA.gov is the U.S. government's official web portal to all federal, state and local government web resources and services.